Regional Weather Roundup
Issued by NWS

Home | Current Version | Previous Version | Text Only | Print | Product List | Glossary On
Versions: 1 2 3 4 5 6 7 8 9 10 11 12 13 14 15 16 17 18 19 20 21 22 23 24 25 26 27 28
000
ASUS45 KREV 210310
RWRNV
NEVADA REGIONAL WEATHER ROUNDUP
NATIONAL WEATHER SERVICE RENO NV
800 PM PDT SUN APR 20 2014

NOTE: "FAIR" INDICATES FEW OR NO CLOUDS BELOW 12,000 FEET WITH NO
SIGNIFICANT WEATHER AND/OR OBSTRUCTIONS TO VISIBILITY.

NVZ001-003-004-210400-
WESTERN NEVADA

CITY           SKY/WX    TMP DP  RH WIND       PRES   REMARKS
RENO           PTCLDY    67  20  16 N12       30.14R
CARSON CITY    FAIR      64  18  16 NE9       30.15S
MINDEN         CLEAR     63  28  27 NW6       30.16R
SLIDE MTN        N/A     43  21  42 W9          N/A
PYRAMID LAKE     N/A     68 N/A N/A W1          N/A
FALLON         CLEAR     61  17  18 NE7       30.13R
LOVELOCK       CLEAR     63  13  14 N7        30.14R
HAWTHORNE      CLEAR     66  18  15 W10       30.14R
$$

NVZ002-CAZ072-073-210400-
NORTHERN AND CENTRAL SIERRA

CITY           SKY/WX    TMP DP  RH WIND       PRES   REMARKS
S. LAKE TAHOE  CLEAR     52  31  44 CALM      30.23R
TRUCKEE        CLEAR     54  34  47 CALM      30.23R
SQUAW VLY 8000   N/A     45  32  61 VRB5        N/A
BLUE CANYON    CLEAR     57  34  41 CALM      30.22S
MAMMOTH LAKES  FAIR      55  21  26 N13       30.23R
BRIDGEPORT     FAIR      53  23  31 W6        30.21R
$$

NVZ030-031-036-210400-
NORTHERN NEVADA

CITY           SKY/WX    TMP DP  RH WIND       PRES   REMARKS
ELKO           CLEAR     54  18  24 NW6       30.20R
WINNEMUCCA     CLEAR     56  15  20 N6        30.18S
WENDOVER       CLEAR     63  16  16 N10       30.16R
$$

NVZ035-037-210400-
CENTRAL NEVADA

CITY           SKY/WX    TMP DP  RH WIND       PRES   REMARKS
ELY            MOCLDY    55  18  23 N5        30.18R
EUREKA           N/A     53  25  33 N9        30.19R
$$

NVZ013-014-210400-
SOUTH CENTRAL NEVADA

CITY           SKY/WX    TMP DP  RH WIND       PRES   REMARKS
TONOPAH        CLEAR     65   6  10 N9        30.15R
$$

NVZ017-020-022-210400-
SOUTHERN NEVADA

CITY           SKY/WX    TMP DP  RH WIND       PRES   REMARKS
LAS VEGAS      PTCLDY    86  30  13 SW12      29.90R
N. LAS VEGAS   CLEAR     85  31  14 VRB3      29.93R
NELLIS AFB     CLEAR     86  36  17 SE12      29.91R
HENDERSON      CLEAR     83  31  15 SW8       29.97R
MERCURY        CLEAR     77  26  15 SW13      30.01R
$$



USA.gov is the U.S. government's official web portal to all federal, state and local government web resources and services.